| time (UTC) | temp F | wind direction | speed knots | gust knots | rain 1hr in | rain 24hr in | rain mn in | humidity % | barometer mb |
| 20260506011008 | 43 | 67 | 3.5 | 7.8 | 0.00 | 0.00 | 0.00 | 86 | 1015.0 |
| 20260506010505 | 43 | 67 | 2.6 | 7.8 | 0.00 | 0.00 | 0.00 | 86 | 1015.0 |
| 20260506010027 | 43 | 77 | 4.3 | 7.8 | 0.00 | 0.00 | 0.00 | 86 | 1015.1 |
| 20260506005510 | 43 | 47 | 2.6 | 4.3 | 0.00 | 0.00 | 0.00 | 86 | 1015.1 |
| 20260506005010 | 43 | 49 | 2.6 | 4.3 | 0.00 | 0.00 | 0.00 | 86 | 1015.2 |
| 20260506004533 | 43 | 37 | 1.7 | 3.5 | 0.00 | 0.00 | 0.00 | 85 | 1015.1 |
| 20260506004007 | 43 | 24 | 1.7 | 3.5 | 0.00 | 0.00 | 0.00 | 85 | 1015.2 |
| 20260506003507 | 43 | 28 | 1.7 | 3.5 | 0.00 | 0.00 | 0.00 | 85 | 1015.3 |
| 20260506003021 | 43 | 352 | 2.6 | 3.5 | 0.00 | 0.00 | 0.00 | 86 | 1015.3 |
| 20260506002506 | 43 | 46 | 1.7 | 3.5 | 0.00 | 0.00 | 0.00 | 86 | 1015.2 |
| 20260506002010 | 43 | 46 | 1.7 | 3.5 | 0.00 | 0.00 | 0.00 | 86 | 1015.2 |
| 20260506001524 | 44 | 38 | 2.6 | 3.5 | 0.00 | 0.00 | 0.00 | 85 | 1015.1 |
| 20260506001008 | 44 | 44 | 1.7 | 3.5 | 0.00 | 0.00 | 0.00 | 85 | 1015.2 |
| 20260506000510 | 44 | 36 | 1.7 | 3.5 | 0.00 | 0.00 | 0.00 | 86 | 1015.2 |
| 20260506000034 | 44 | 26 | 2.6 | 4.3 | 0.00 | 0.00 | 0.00 | 85 | 1015.2 |
| 20260505235514 | 44 | 25 | 1.7 | 4.3 | 0.00 | 0.00 | 0.00 | 86 | 1015.1 |
| 20260505235006 | 44 | 60 | 2.6 | 3.5 | 0.00 | 0.00 | 0.00 | 86 | 1015.2 |
| 20260505234528 | 44 | 37 | 1.7 | 4.3 | 0.00 | 0.00 | 0.00 | 86 | 1015.2 |
| 20260505234009 | 44 | 34 | 2.6 | 4.3 | 0.00 | 0.00 | 0.00 | 86 | 1015.2 |
| 20260505233511 | 44 | 54 | 2.6 | 4.3 | 0.00 | 0.00 | 0.00 | 86 | 1015.1 |
| 20260505233016 | 44 | 60 | 2.6 | 7.0 | 0.00 | 0.00 | 0.00 | 86 | 1015.1 |
| 20260505232509 | 44 | 43 | 3.5 | 7.8 | 0.00 | 0.00 | 0.00 | 86 | 1015.1 |
| 20260505232007 | 44 | 61 | 4.3 | 7.8 | 0.00 | 0.00 | 0.00 | 86 | 1015.1 |
| 20260505231522 | 44 | 81 | 2.6 | 6.1 | 0.00 | 0.00 | 0.00 | 86 | 1015.1 |
| 20260505231008 | 44 | 80 | 4.3 | 6.1 | 0.00 | 0.00 | 0.00 | 86 | 1015.2 |
| 20260505230509 | 44 | 71 | 3.5 | 5.2 | 0.00 | 0.00 | 0.00 | 87 | 1015.2 |
| 20260505230026 | 44 | 71 | 2.6 | 7.0 | 0.00 | 0.00 | 0.00 | 87 | 1015.2 |
| 20260505225511 | 44 | 61 | 4.3 | 7.0 | 0.00 | 0.00 | 0.00 | 87 | 1015.2 |
| 20260505225012 | 44 | 51 | 3.5 | 5.2 | 0.00 | 0.00 | 0.00 | 87 | 1015.1 |
| 20260505224532 | 45 | 53 | 2.6 | 5.2 | 0.00 | 0.00 | 0.00 | 86 | 1015.1 |
| 20260505224002 | 45 | 32 | 3.5 | 8.7 | 0.00 | 0.00 | 0.00 | 87 | 1015.1 |
| 20260505223509 | 45 | 42 | 3.5 | 8.7 | 0.00 | 0.00 | 0.00 | 87 | 1015.1 |
| 20260505223018 | 45 | 45 | 2.6 | 7.0 | 0.00 | 0.00 | 0.00 | 88 | 1015.2 |
| 20260505222504 | 45 | 27 | 2.6 | 6.1 | 0.00 | 0.00 | 0.00 | 90 | 1015.2 |
| 20260505222010 | 44 | 71 | 2.6 | 6.1 | 0.00 | 0.00 | 0.00 | 90 | 1015.3 |
| 20260505221512 | 44 | 337 | 1.7 | 1.7 | 0.00 | 0.00 | 0.00 | 90 | 1015.3 |
| 20260505221006 | 44 | 339 | 0.0 | 1.7 | 0.00 | 0.00 | 0.00 | 90 | 1015.3 |
| 20260505220508 | 44 | 233 | 0.0 | 0.0 | 0.00 | 0.00 | 0.00 | 89 | 1015.3 |
| 20260505220035 | 44 | 233 | 0.0 | 0.0 | 0.00 | 0.00 | 0.00 | 89 | 1015.1 |
| 20260505215510 | 44 | 233 | 0.0 | 0.0 | 0.00 | 0.00 | 0.00 | 89 | 1015.1 |
| 20260505215009 | 43 | 233 | 0.0 | 0.0 | 0.00 | 0.00 | 0.00 | 89 | 1015.1 |
| 20260505214542 | 43 | 233 | 0.0 | 0.0 | 0.00 | 0.00 | 0.00 | 89 | 1015.1 |
| 20260505214007 | 43 | 233 | 0.0 | 0.0 | 0.00 | 0.00 | 0.00 | 89 | 1015.1 |
| 20260505213507 | 43 | 233 | 0.0 | 0.0 | 0.00 | 0.00 | 0.00 | 89 | 1015.1 |
| 20260505213012 | 43 | 233 | 0.0 | 0.0 | 0.00 | 0.00 | 0.00 | 89 | 1015.0 |
| 20260505212505 | 43 | 233 | 0.0 | 0.0 | 0.00 | 0.00 | 0.00 | 89 | 1015.0 |
| 20260505212007 | 43 | 233 | 0.0 | 0.0 | 0.00 | 0.00 | 0.00 | 88 | 1015.0 |
| 20260505211516 | 43 | 348 | 0.0 | 0.0 | 0.00 | 0.00 | 0.00 | 88 | 1015.0 |
| 20260505211009 | 43 | 349 | 0.0 | 0.0 | 0.00 | 0.00 | 0.00 | 88 | 1015.0 |
| 20260505210503 | 43 | 349 | 0.0 | 0.0 | 0.00 | 0.00 | 0.00 | 87 | 1015.1 |
| 20260505210023 | 43 | 349 | 0.0 | 0.0 | 0.00 | 0.00 | 0.00 | 87 | 1015.0 |
| 20260505205515 | 44 | 349 | 0.0 | 1.7 | 0.00 | 0.00 | 0.00 | 86 | 1015.0 |
| 20260505205016 | 44 | 349 | 0.0 | 1.7 | 0.00 | 0.00 | 0.00 | 86 | 1015.1 |
| 20260505204524 | 44 | 347 | 0.0 | 0.9 | 0.00 | 0.00 | 0.00 | 86 | 1015.1 |
| 20260505204008 | 44 | 333 | 0.0 | 0.0 | 0.00 | 0.00 | 0.00 | 86 | 1015.1 |
| 20260505203510 | 44 | 333 | 0.0 | 0.9 | 0.00 | 0.00 | 0.00 | 85 | 1015.1 |
| 20260505203013 | 44 | 333 | 0.0 | 1.7 | 0.00 | 0.00 | 0.00 | 85 | 1015.2 |
| 20260505202507 | 44 | 351 | 0.0 | 1.7 | 0.00 | 0.00 | 0.00 | 84 | 1015.2 |
| 20260505202009 | 44 | 350 | 0.0 | 1.7 | 0.00 | 0.00 | 0.00 | 84 | 1015.2 |
| 20260505201517 | 45 | 349 | 0.0 | 1.7 | 0.00 | 0.00 | 0.00 | 83 | 1015.1 |
| 20260505201006 | 45 | 360 | 0.0 | 1.7 | 0.00 | 0.00 | 0.00 | 83 | 1015.1 |
| 20260505200512 | 45 | 352 | 0.0 | 2.6 | 0.00 | 0.00 | 0.00 | 83 | 1015.1 |
| 20260505200027 | 45 | 352 | 0.0 | 2.6 | 0.00 | 0.00 | 0.00 | 82 | 1015.1 |
| 20260505195511 | 45 | 16 | 0.9 | 3.5 | 0.00 | 0.00 | 0.00 | 82 | 1015.1 |
| 20260505195007 | 45 | 352 | 1.7 | 4.3 | 0.00 | 0.00 | 0.00 | 81 | 1015.1 |
| 20260505194523 | 45 | 350 | 1.7 | 3.5 | 0.00 | 0.00 | 0.00 | 81 | 1015.1 |
| 20260505194014 | 46 | 5 | 1.7 | 5.2 | 0.00 | 0.00 | 0.00 | 81 | 1015.0 |
| 20260505193507 | 46 | 349 | 1.7 | 5.2 | 0.00 | 0.00 | 0.00 | 81 | 1015.0 |
| 20260505193038 | 46 | 5 | 3.5 | 5.2 | 0.00 | 0.00 | 0.00 | 80 | 1015.0 |
| 20260505192509 | 46 | 360 | 3.5 | 4.3 | 0.00 | 0.00 | 0.00 | 80 | 1014.9 |
| 20260505192008 | 46 | 13 | 2.6 | 4.3 | 0.00 | 0.00 | 0.00 | 80 | 1014.9 |
| 20260505191519 | 47 | 39 | 2.6 | 4.3 | 0.00 | 0.00 | 0.00 | 79 | 1014.8 |
| 20260505191006 | 47 | 5 | 1.7 | 5.2 | 0.00 | 0.00 | 0.00 | 79 | 1014.8 |
| 20260505190509 | 47 | 21 | 1.7 | 7.0 | 0.00 | 0.00 | 0.00 | 79 | 1014.8 |
| 20260505190028 | 47 | 13 | 3.5 | 7.0 | 0.00 | 0.00 | 0.00 | 78 | 1014.8 |
| 20260505185513 | 47 | 5 | 2.6 | 7.0 | 0.00 | 0.00 | 0.00 | 78 | 1014.8 |
| 20260505185007 | 47 | 5 | 2.6 | 7.0 | 0.00 | 0.00 | 0.00 | 78 | 1014.7 |
| 20260505184525 | 48 | 335 | 2.6 | 7.0 | 0.00 | 0.00 | 0.00 | 77 | 1014.7 |
| 20260505184007 | 48 | 9 | 1.7 | 7.0 | 0.00 | 0.00 | 0.00 | 76 | 1014.7 |
| 20260505183507 | 48 | 348 | 2.6 | 6.1 | 0.00 | 0.00 | 0.00 | 76 | 1014.7 |
| 20260505183043 | 48 | 360 | 1.7 | 6.1 | 0.00 | 0.00 | 0.00 | 76 | 1014.7 |
| 20260505182503 | 48 | 335 | 1.7 | 7.0 | 0.00 | 0.00 | 0.00 | 76 | 1014.6 |
| 20260505182002 | 48 | 24 | 1.7 | 7.0 | 0.00 | 0.00 | 0.00 | 75 | 1014.6 |
| 20260505181507 | 48 | 294 | 2.6 | 4.3 | 0.00 | 0.00 | 0.00 | 75 | 1014.5 |
| 20260505181006 | 48 | 302 | 2.6 | 4.3 | 0.00 | 0.00 | 0.00 | 75 | 1014.6 |
| 20260505180504 | 49 | 288 | 0.9 | 7.8 | 0.00 | 0.00 | 0.00 | 74 | 1014.6 |
| 20260505180006 | 49 | 351 | 3.5 | 7.8 | 0.00 | 0.00 | 0.00 | 72 | 1014.6 |
| 20260505175503 | 49 | 352 | 1.7 | 7.8 | 0.00 | 0.00 | 0.00 | 72 | 1014.6 |
| 20260505175004 | 49 | 348 | 3.5 | 7.0 | 0.00 | 0.00 | 0.00 | 72 | 1014.5 |
| 20260505174505 | 49 | 347 | 3.5 | 7.0 | 0.00 | 0.00 | 0.00 | 72 | 1014.5 |
| 20260505174004 | 49 | 9 | 1.7 | 7.0 | 0.00 | 0.00 | 0.00 | 72 | 1014.5 |
| 20260505173504 | 49 | 318 | 1.7 | 7.8 | 0.00 | 0.00 | 0.00 | 73 | 1014.5 |
| 20260505173003 | 49 | 352 | 3.5 | 8.7 | 0.00 | 0.00 | 0.00 | 72 | 1014.5 |
| 20260505172500 | 50 | 360 | 3.5 | 8.7 | 0.00 | 0.00 | 0.00 | 71 | 1014.4 |
| 20260505172003 | 50 | 40 | 5.2 | 8.7 | 0.00 | 0.00 | 0.00 | 72 | 1014.4 |
| 20260505171522 | 51 | 317 | 2.6 | 7.0 | 0.00 | 0.00 | 0.00 | 73 | 1014.4 |
| 20260505171003 | 51 | 360 | 2.6 | 7.0 | 0.00 | 0.00 | 0.00 | 72 | 1014.5 |
| 20260505170505 | 52 | 288 | 2.6 | 6.1 | 0.00 | 0.00 | 0.00 | 72 | 1014.5 |
| 20260505170013 | 52 | 278 | 2.6 | 6.1 | 0.00 | 0.00 | 0.00 | 73 | 1014.4 |
| 20260505165504 | 51 | 318 | 1.7 | 9.6 | 0.00 | 0.00 | 0.00 | 74 | 1014.5 |
| 20260505165003 | 51 | 339 | 3.5 | 9.6 | 0.00 | 0.00 | 0.00 | 75 | 1014.5 |
| 20260505164516 | 50 | 350 | 2.6 | 7.8 | 0.00 | 0.00 | 0.00 | 74 | 1014.6 |
| 20260505164003 | 50 | 312 | 2.6 | 7.8 | 0.00 | 0.00 | 0.00 | 76 | 1014.7 |
| 20260505163504 | 50 | 282 | 1.7 | 7.0 | 0.00 | 0.00 | 0.00 | 76 | 1014.7 |
| 20260505163009 | 50 | 297 | 3.5 | 7.0 | 0.00 | 0.00 | 0.00 | 76 | 1014.7 |
| 20260505162502 | 50 | 347 | 1.7 | 7.8 | 0.00 | 0.00 | 0.00 | 75 | 1014.6 |
| 20260505162004 | 50 | 19 | 1.7 | 7.8 | 0.00 | 0.00 | 0.00 | 78 | 1014.6 |
| 20260505161504 | 50 | 304 | 2.6 | 8.7 | 0.00 | 0.00 | 0.00 | 77 | 1014.5 |
| 20260505161004 | 50 | 307 | 3.5 | 9.6 | 0.00 | 0.00 | 0.00 | 75 | 1014.6 |
| 20260505160504 | 50 | 293 | 3.5 | 9.6 | 0.00 | 0.00 | 0.00 | 76 | 1014.6 |
| 20260505153018 | 51 | 330 | 2.6 | 8.7 | 0.00 | 0.00 | 0.00 | 73 | 1014.6 |
| 20260505152503 | 51 | 286 | 3.5 | 7.8 | 0.00 | 0.00 | 0.00 | 73 | 1014.6 |
| 20260505152006 | 51 | 350 | 2.6 | 7.8 | 0.00 | 0.00 | 0.00 | 73 | 1014.6 |
| 20260505151513 | 51 | 242 | 1.7 | 6.1 | 0.00 | 0.00 | 0.00 | 73 | 1014.6 |
| 20260505151007 | 51 | 291 | 2.6 | 7.0 | 0.00 | 0.00 | 0.00 | 72 | 1014.6 |
| 20260505150503 | 51 | 346 | 2.6 | 7.8 | 0.00 | 0.00 | 0.00 | 73 | 1014.8 |
| 20260505140509 | 50 | 9 | 7.8 | 12.2 | 0.00 | 0.00 | 0.00 | 72 | 1014.8 |
| 20260505125005 | 50 | 11 | 3.5 | 8.7 | 0.00 | 0.00 | 0.00 | 80 | 1014.9 |
| 20260505124507 | 49 | 346 | 0.9 | 7.8 | 0.00 | 0.00 | 0.00 | 82 | 1014.8 |
| 20260505124009 | 49 | 352 | 1.7 | 10.4 | 0.00 | 0.00 | 0.00 | 81 | 1014.8 |
| 20260505123503 | 49 | 11 | 4.3 | 10.4 | 0.00 | 0.00 | 0.00 | 80 | 1014.8 |
| 20260505123009 | 49 | 11 | 3.5 | 9.6 | 0.00 | 0.00 | 0.00 | 80 | 1014.8 |
| 20260505122504 | 49 | 360 | 5.2 | 10.4 | 0.00 | 0.00 | 0.00 | 79 | 1014.7 |
| 20260505122006 | 49 | 17 | 7.8 | 10.4 | 0.00 | 0.00 | 0.00 | 77 | 1014.7 |
| 20260505121515 | 50 | 360 | 7.0 | 9.6 | 0.00 | 0.00 | 0.00 | 76 | 1014.8 |
| 20260505121001 | 51 | 5 | 4.3 | 12.2 | 0.00 | 0.00 | 0.00 | 75 | 1014.7 |
| 20260505120508 | 52 | 360 | 6.1 | 12.2 | 0.00 | 0.00 | 0.00 | 74 | 1014.7 |
| 20260505120016 | 53 | 340 | 4.3 | 10.4 | 0.00 | 0.00 | 0.00 | 76 | 1014.7 |
| 20260505115507 | 52 | 246 | 3.5 | 12.2 | 0.00 | 0.00 | 0.00 | 78 | 1014.7 |
| 20260505115005 | 51 | 9 | 6.1 | 12.2 | 0.00 | 0.00 | 0.00 | 78 | 1014.9 |
| 20260505114520 | 50 | 350 | 2.6 | 8.7 | 0.00 | 0.00 | 0.00 | 81 | 1014.9 |
| 20260505114006 | 49 | 344 | 3.5 | 8.7 | 0.00 | 0.00 | 0.00 | 82 | 1015.0 |
| 20260505113505 | 48 | 295 | 2.6 | 7.8 | 0.00 | 0.00 | 0.00 | 82 | 1015.0 |
| 20260505113018 | 47 | 309 | 2.6 | 7.0 | 0.00 | 0.00 | 0.00 | 83 | 1015.1 |
| 20260505112507 | 47 | 341 | 3.5 | 7.8 | 0.00 | 0.00 | 0.00 | 82 | 1015.1 |
| 20260505112004 | 47 | 5 | 1.7 | 7.8 | 0.00 | 0.00 | 0.00 | 84 | 1015.2 |
| 20260505111517 | 47 | 290 | 1.7 | 8.7 | 0.00 | 0.00 | 0.00 | 83 | 1015.2 |
| 20260505111005 | 47 | 318 | 2.6 | 8.7 | 0.00 | 0.00 | 0.00 | 83 | 1015.3 |
| 20260505110507 | 47 | 5 | 2.6 | 9.6 | 0.00 | 0.00 | 0.00 | 83 | 1015.3 |
| 20260505102006 | 49 | 308 | 2.6 | 8.7 | 0.00 | 0.00 | 0.00 | 81 | 1015.1 |
| 20260505101519 | 49 | 5 | 2.6 | 8.7 | 0.00 | 0.00 | 0.00 | 79 | 1015.2 |
| 20260505101003 | 49 | 325 | 2.6 | 7.8 | 0.00 | 0.00 | 0.00 | 79 | 1015.2 |
| 20260505100506 | 49 | 12 | 3.5 | 7.8 | 0.00 | 0.00 | 0.00 | 80 | 1015.1 |
| 20260505100015 | 49 | 338 | 1.7 | 6.1 | 0.00 | 0.00 | 0.00 | 84 | 1015.1 |
| 20260505095505 | 49 | 296 | 2.6 | 7.8 | 0.00 | 0.00 | 0.00 | 82 | 1015.1 |
| 20260505095004 | 49 | 312 | 2.6 | 7.8 | 0.00 | 0.00 | 0.00 | 81 | 1015.1 |
| 20260505094514 | 49 | 352 | 2.6 | 8.7 | 0.00 | 0.00 | 0.00 | 80 | 1015.2 |
| 20260505094009 | 49 | 350 | 3.5 | 8.7 | 0.00 | 0.00 | 0.00 | 83 | 1015.2 |
| 20260505093511 | 49 | 346 | 0.9 | 7.0 | 0.00 | 0.00 | 0.00 | 87 | 1015.2 |
| 20260505093015 | 49 | 348 | 1.7 | 7.0 | 0.00 | 0.00 | 0.00 | 86 | 1015.2 |
| 20260505092511 | 48 | 347 | 2.6 | 7.0 | 0.00 | 0.00 | 0.00 | 87 | 1015.1 |
| 20260505092009 | 48 | 352 | 2.6 | 7.0 | 0.00 | 0.00 | 0.00 | 87 | 1015.2 |
| 20260505091529 | 48 | 360 | 1.7 | 4.3 | 0.00 | 0.00 | 0.00 | 88 | 1015.2 |
| 20260505091007 | 47 | 295 | 1.7 | 3.5 | 0.00 | 0.00 | 0.00 | 90 | 1015.2 |
| 20260505090509 | 47 | 347 | 1.7 | 6.1 | 0.00 | 0.00 | 0.00 | 89 | 1015.2 |
| 20260505090036 | 47 | 242 | 2.6 | 7.0 | 0.00 | 0.00 | 0.00 | 89 | 1015.2 |
| 20260505085505 | 47 | 337 | 2.6 | 7.0 | 0.00 | 0.00 | 0.00 | 89 | 1015.1 |
| 20260505085005 | 47 | 324 | 2.6 | 6.1 | 0.00 | 0.00 | 0.00 | 89 | 1015.1 |
| 20260505084520 | 47 | 247 | 2.6 | 6.1 | 0.00 | 0.00 | 0.00 | 89 | 1015.1 |
| 20260505084012 | 47 | 5 | 1.7 | 4.3 | 0.00 | 0.00 | 0.00 | 90 | 1015.2 |
| 20260505083507 | 47 | 349 | 0.0 | 6.1 | 0.00 | 0.00 | 0.00 | 90 | 1015.2 |
| 20260505083023 | 46 | 349 | 3.5 | 7.0 | 0.00 | 0.00 | 0.00 | 90 | 1015.1 |
| 20260505082506 | 46 | 360 | 3.5 | 7.0 | 0.00 | 0.00 | 0.00 | 90 | 1015.3 |
| 20260505082010 | 46 | 5 | 2.6 | 4.3 | 0.00 | 0.00 | 0.00 | 92 | 1015.3 |
| 20260505081529 | 46 | 33 | 0.9 | 3.5 | 0.00 | 0.00 | 0.00 | 93 | 1015.4 |
| 20260505081008 | 45 | 293 | 0.9 | 3.5 | 0.00 | 0.00 | 0.00 | 93 | 1015.3 |
| 20260505080508 | 45 | 317 | 0.9 | 3.5 | 0.00 | 0.00 | 0.00 | 94 | 1015.4 |
| 20260505080040 | 45 | 23 | 0.0 | 5.2 | 0.00 | 0.00 | 0.00 | 95 | 1015.4 |
| 20260505075506 | 45 | 10 | 2.6 | 5.2 | 0.00 | 0.00 | 0.00 | 96 | 1015.4 |
| 20260505075006 | 44 | 49 | 0.0 | 3.5 | 0.00 | 0.00 | 0.00 | 97 | 1015.3 |
| 20260505074521 | 44 | 351 | 0.9 | 2.6 | 0.00 | 0.00 | 0.00 | 97 | 1015.4 |
| 20260505074006 | 44 | 319 | 0.9 | 2.6 | 0.00 | 0.00 | 0.00 | 97 | 1015.3 |
| 20260505073507 | 44 | 185 | 0.0 | 1.7 | 0.00 | 0.00 | 0.00 | 97 | 1015.3 |
| 20260505073020 | 43 | 165 | 0.0 | 1.7 | 0.00 | 0.00 | 0.00 | 97 | 1015.4 |
| 20260505072507 | 43 | 184 | 0.9 | 1.7 | 0.00 | 0.00 | 0.00 | 97 | 1015.4 |
| 20260505072008 | 43 | 180 | 0.0 | 1.7 | 0.00 | 0.00 | 0.00 | 97 | 1015.5 |
| 20260505071522 | 43 | 180 | 0.0 | 0.9 | 0.00 | 0.00 | 0.00 | 97 | 1015.5 |
| 20260505071008 | 42 | 180 | 0.0 | 1.7 | 0.00 | 0.00 | 0.00 | 97 | 1015.5 |
| 20260505070511 | 42 | 188 | 0.9 | 1.7 | 0.00 | 0.00 | 0.00 | 97 | 1015.4 |
| 20260505070025 | 42 | 202 | 0.0 | 1.7 | 0.00 | 0.00 | 0.00 | 97 | 1015.5 |
| 20260505065508 | 42 | 210 | 0.0 | 1.7 | 0.00 | 0.00 | 0.00 | 97 | 1015.4 |
| 20260505065005 | 42 | 190 | 0.9 | 1.7 | 0.00 | 0.00 | 0.00 | 97 | 1015.5 |
| 20260505064522 | 41 | 193 | 0.0 | 1.7 | 0.00 | 0.00 | 0.00 | 97 | 1015.6 |
| 20260505064012 | 41 | 173 | 0.9 | 1.7 | 0.00 | 0.00 | 0.00 | 97 | 1015.5 |
| 20260505063511 | 41 | 215 | 0.9 | 1.7 | 0.00 | 0.00 | 0.00 | 97 | 1015.5 |
| 20260505063019 | 40 | 196 | 0.9 | 1.7 | 0.00 | 0.00 | 0.00 | 97 | 1015.5 |
| 20260505062009 | 39 | 185 | 0.0 | 1.7 | 0.00 | 0.00 | 0.00 | 97 | 1015.5 |
| 20260505061520 | 39 | 185 | 0.9 | 1.7 | 0.00 | 0.00 | 0.00 | 97 | 1015.5 |
| 20260505061012 | 39 | 208 | 0.9 | 1.7 | 0.00 | 0.00 | 0.00 | 97 | 1015.6 |
| 20260505060511 | 38 | 188 | 0.0 | 1.7 | 0.00 | 0.00 | 0.00 | 97 | 1015.5 |
| 20260505060027 | 38 | 197 | 0.9 | 1.7 | 0.00 | 0.00 | 0.00 | 97 | 1015.4 |
| 20260505055508 | 38 | 222 | 0.9 | 1.7 | 0.00 | 0.00 | 0.00 | 97 | 1015.3 |
| 20260505055012 | 37 | 209 | 0.9 | 1.7 | 0.00 | 0.00 | 0.00 | 97 | 1015.5 |
| 20260505054524 | 37 | 225 | 0.0 | 1.7 | 0.00 | 0.00 | 0.00 | 97 | 1015.4 |
| 20260505054007 | 36 | 225 | 0.0 | 1.7 | 0.00 | 0.00 | 0.00 | 97 | 1015.4 |
| 20260505053511 | 35 | 225 | 0.9 | 1.7 | 0.00 | 0.00 | 0.00 | 97 | 1015.4 |
| 20260505053022 | 35 | 227 | 0.0 | 3.5 | 0.00 | 0.00 | 0.00 | 96 | 1015.4 |
| 20260505052515 | 34 | 211 | 1.7 | 3.5 | 0.00 | 0.00 | 0.00 | 96 | 1015.3 |
| 20260505052006 | 34 | 234 | 0.0 | 2.6 | 0.00 | 0.00 | 0.00 | 96 | 1015.3 |
| 20260505051525 | 34 | 268 | 0.9 | 1.7 | 0.00 | 0.00 | 0.00 | 96 | 1015.3 |
| 20260505051007 | 34 | 122 | 0.0 | 1.7 | 0.00 | 0.00 | 0.00 | 95 | 1015.3 |
| 20260505050511 | 34 | 216 | 0.0 | 2.6 | 0.00 | 0.00 | 0.00 | 94 | 1015.3 |
| 20260505041540 | 35 | 225 | 0.9 | 2.6 | 0.00 | 0.00 | 0.00 | 95 | 1015.1 |
| 20260505041007 | 35 | 159 | 0.0 | 2.6 | 0.00 | 0.00 | 0.00 | 95 | 1015.1 |
| 20260505040512 | 35 | 223 | 1.7 | 2.6 | 0.00 | 0.00 | 0.00 | 95 | 1015.1 |
| 20260505040027 | 35 | 185 | 0.9 | 2.6 | 0.00 | 0.00 | 0.00 | 95 | 1015.0 |
| 20260505035507 | 35 | 190 | 0.0 | 2.6 | 0.00 | 0.00 | 0.00 | 95 | 1015.0 |
| 20260505035011 | 35 | 188 | 0.9 | 2.6 | 0.00 | 0.00 | 0.00 | 94 | 1015.0 |
| 20260505034523 | 36 | 212 | 0.0 | 2.6 | 0.00 | 0.00 | 0.00 | 95 | 1015.0 |
| 20260505034013 | 36 | 228 | 0.9 | 2.6 | 0.00 | 0.00 | 0.00 | 95 | 1015.1 |
| 20260505033510 | 36 | 222 | 1.7 | 2.6 | 0.00 | 0.00 | 0.00 | 95 | 1015.1 |
| 20260505033026 | 36 | 222 | 0.9 | 1.7 | 0.00 | 0.00 | 0.00 | 95 | 1015.0 |
| 20260505032508 | 36 | 226 | 0.9 | 1.7 | 0.00 | 0.00 | 0.00 | 95 | 1015.1 |
| 20260505032010 | 36 | 227 | 0.9 | 2.6 | 0.00 | 0.00 | 0.00 | 95 | 1015.0 |
| 20260505031522 | 36 | 207 | 0.9 | 2.6 | 0.00 | 0.00 | 0.00 | 94 | 1015.0 |
| 20260505031010 | 36 | 194 | 0.0 | 1.7 | 0.00 | 0.00 | 0.00 | 94 | 1015.1 |
| 20260505030509 | 36 | 223 | 0.0 | 1.7 | 0.00 | 0.00 | 0.00 | 94 | 1015.1 |
| 20260505030033 | 36 | 223 | 0.9 | 1.7 | 0.00 | 0.00 | 0.00 | 94 | 1015.1 |
| 20260505025507 | 37 | 211 | 0.0 | 1.7 | 0.00 | 0.00 | 0.00 | 94 | 1015.2 |
| 20260505025007 | 37 | 211 | 0.0 | 1.7 | 0.00 | 0.00 | 0.00 | 95 | 1015.2 |
| 20260505024527 | 37 | 213 | 0.0 | 0.0 | 0.00 | 0.00 | 0.00 | 95 | 1015.2 |
| 20260505024006 | 37 | 193 | 0.0 | 1.7 | 0.00 | 0.00 | 0.00 | 95 | 1015.2 |
| 20260505023508 | 37 | 204 | 0.0 | 1.7 | 0.00 | 0.00 | 0.00 | 94 | 1015.2 |
| 20260505023033 | 37 | 222 | 0.9 | 1.7 | 0.00 | 0.00 | 0.00 | 94 | 1015.3 |
| 20260505022508 | 37 | 209 | 0.9 | 1.7 | 0.00 | 0.00 | 0.00 | 93 | 1015.3 |
| 20260505022010 | 37 | 228 | 0.0 | 1.7 | 0.00 | 0.00 | 0.00 | 92 | 1015.3 |
| 20260505021527 | 38 | 228 | 0.0 | 1.7 | 0.00 | 0.00 | 0.00 | 94 | 1015.4 |
| 20260505021010 | 38 | 228 | 0.9 | 1.7 | 0.00 | 0.00 | 0.00 | 94 | 1015.4 |
| 20260505020506 | 38 | 228 | 0.0 | 1.7 | 0.00 | 0.00 | 0.00 | 93 | 1015.4 |
| 20260505020029 | 38 | 228 | 0.0 | 1.7 | 0.00 | 0.00 | 0.00 | 93 | 1015.5 |
| 20260505015517 | 38 | 228 | 0.0 | 1.7 | 0.00 | 0.00 | 0.00 | 93 | 1015.4 |
| 20260505015009 | 39 | 228 | 0.0 | 1.7 | 0.00 | 0.00 | 0.00 | 93 | 1015.4 |
| 20260505014527 | 39 | 228 | 0.9 | 1.7 | 0.00 | 0.00 | 0.00 | 92 | 1015.4 |
| 20260505014009 | 39 | 222 | 0.0 | 0.0 | 0.00 | 0.00 | 0.00 | 93 | 1015.5 |
| 20260505013508 | 40 | 222 | 0.0 | 0.0 | 0.00 | 0.00 | 0.00 | 92 | 1015.7 |
| 20260505013025 | 40 | 222 | 0.0 | 1.7 | 0.00 | 0.00 | 0.00 | 92 | 1015.7 |
| 20260505012514 | 41 | 222 | 0.0 | 1.7 | 0.00 | 0.00 | 0.00 | 93 | 1015.8 |
| 20260505012008 | 41 | 217 | 0.0 | 2.6 | 0.00 | 0.00 | 0.00 | 94 | 1015.8 |
| 20260505011529 | 41 | 228 | 0.0 | 2.6 | 0.00 | 0.00 | 0.00 | 93 | 1015.8 |